This demonstration page uses our WeatherBlox Daily Observations layout. Learn more.

Left ArrowRight Arrow

44.89941, -97.11507

Hourly Observations for August 1, 2016

Temp ( °F °C ) Dew Point ( °F °C ) Humidity (%) Winds ( mph kmh ) Pressure ( in mb ) Visibility ( mi km ) Precip ( " mm )
12:53 am 00:53 Clear 72 22.2 69 20.6 91 91 SSE 10 17 29.89 1012 10 16 0.00 0.00
1:53 am 01:53 Clear 71 21.7 68 20 90 90 SSE 10 17 29.88 1012 10 16 0.00 0.00
2:27 am 02:27 Mostly Clear 70 21.1 68 20 93 93 SSE 8 13 29.85 1011 10 16 0.00 0.00
2:53 am 02:53 Partly Cloudy 70 21.1 68 20 93 93 SSE 10 17 29.86 1011 10 16 0.00 0.00
3:16 am 03:16 Mostly Cloudy 70 21.1 68 20 93 93 SSE 8 13 29.85 1011 10 16 0.00 0.00
3:53 am 03:53 Cloudy 70 21.1 68 20 93 93 SSE 9 15 29.85 1011 9 14 0.00 0.00
4:53 am 04:53 Cloudy 70 21.1 68 20 93 93 SSE 12 19 29.84 1011 8 13 0.00 0.00
5:12 am 05:12 Cloudy 70 21.1 68 20 93 93 SSE 9 15 29.83 1010 8 13 0.00 0.00
5:53 am 05:53 Cloudy 71 21.7 68 20 90 90 SSE 8 13 29.87 1012 7 11 0.00 0.00
6:53 am 06:53 Cloudy with Mist and Fog 71 21.7 69 20.6 94 94 SE 7 11 29.87 1012 4 6 0.00 0.00
7:05 am 07:05 Cloudy with Mist and Fog 71 21.7 69 20.6 94 94 SE 7 11 29.85 1011 3 5 0.00 0.00
7:30 am 07:30 Cloudy with Mist and Fog 71 21.7 69 20.6 94 94 SE 6 9 29.85 1011 3 4 0.00 0.00
7:37 am 07:37 Cloudy with Mist and Fog 71 21.7 69 20.6 94 94 SE 7 11 29.85 1011 4 6 0.00 0.00
7:53 am 07:53 Cloudy with Mist and Fog 71 21.7 69 20.6 94 94 SE 9 15 29.88 1012 5 8 0.00 0.00
8:53 am 08:53 Cloudy with Mist and Fog 71 21.7 68 20 90 90 SSE 17 28 29.88 1012 5 8 0.00 0.00
9:34 am 09:34 Partly Cloudy 72 22.2 68 20 87 87 SE 14 22 29.83 1010 10 16 0.00 0.00
9:53 am 09:53 Sunny 74 23.3 67 19.4 79 79 SE 15 24 29.84 1011 10 16 0.00 0.00
10:53 am 10:53 Sunny 78 25.6 67 19.4 69 69 SE 16 26 29.82 1010 10 16 0.00 0.00
11:53 am 11:53 Sunny 79 26.1 68 20 69 69 S 14 22 29.87 1012 10 16 0.00 0.00
12:37 pm 12:37 Mostly Cloudy 79 26.1 69 20.6 72 72 S 13 20 29.85 1011 10 16 0.00 0.00
12:48 pm 12:48 Partly Cloudy 81 27 70 21 70 70 S 13 20 29.85 1011 10 16 0.00 0.00
12:53 pm 12:53 Partly Cloudy 80 26.7 70 21.1 71 71 S 12 19 29.90 1012 10 16 0.00 0.00
1:05 pm 13:05 Mostly Cloudy 81 27.2 69 20.6 67 67 S 15 24 29.85 1011 10 16 0.00 0.00
1:16 pm 13:16 Partly Cloudy 82 27.8 70 21.1 67 67 S 15 24 29.85 1011 10 16 0.00 0.00
1:37 pm 13:37 Mostly Cloudy 82 27.8 69 20.6 65 65 S 16 26 29.85 1011 10 16 0.00 0.00
1:53 pm 13:53 Mostly Cloudy 82 27.8 69 20.6 65 65 S 15 24 29.89 1012 10 16 0.00 0.00
2:12 pm 14:12 Mostly Cloudy 83 28.3 70 21.1 65 65 SSW 15 24 29.85 1011 10 16 0.00 0.00
2:53 pm 14:53 Mostly Cloudy 84 28.9 70 21.1 63 63 S 14 22 29.89 1012 10 16 0.00 0.00
3:02 pm 15:02 Mostly Cloudy 84 28.9 69 20.6 61 61 S 14 22 29.85 1011 10 16 0.00 0.00
3:53 pm 15:53 Mostly Sunny 82 27.8 71 21.7 69 69 S 18 30 29.88 1012 10 16 0.00 0.00
4:53 pm 16:53 Cloudy 80 26.7 70 21.1 71 71 S 15 24 29.89 1012 10 16 0.00 0.00
5:53 pm 17:53 Cloudy 79 26.1 69 20.6 72 72 S 15 24 29.89 1012 10 16 0.00 0.00
6:11 pm 18:11 Cloudy 78 25.6 69 20.6 74 74 S 14 22 29.85 1011 10 16 0.00 0.00
6:53 pm 18:53 Cloudy 78 25.6 68 20 71 71 S 10 17 29.90 1013 10 16 0.00 0.00
7:53 pm 19:53 Cloudy 77 25 68 20 74 74 SSE 8 13 29.91 1013 10 16 0.00 0.00
8:53 pm 20:53 Cloudy 76 24.4 68 20 77 77 S 8 13 29.92 1013 10 16 0.00 0.00
9:53 pm 21:53 Cloudy 75 23.9 69 20.6 82 82 S 7 11 29.96 1014 10 16 0.00 0.00
10:53 pm 22:53 Cloudy 75 23.9 68 20 79 79 ESE 5 7 29.96 1015 10 16 0.00 0.00
11:53 pm 23:53 Mostly Clear 73 22.8 67 19.4 81 81 SSE 8 13 29.96 1014 10 16 0.00 0.00

Powered by AerisWeather